User: anonymous   Login
Location: Fairmont
(43.6520°N, 94.4610°W)
Time: 11:30:07
(UTC-06:00)
Language:

Cosmos-2242 - Orbit

View from above orbital plane
View from above orbital plane
View from above satellite
View from above satellite

Ground track
Ground track

The orbit data is extracted from the following two-line orbital elements,

1 22626U 93024A   18022.93719886 +.00000196 +00000-0 +18617-4 0  9993
2 22626 082.5210 194.6340 0020405 110.1797 250.1618 14.87762304338528
Epoch (UTC): 22 January 2018 22:29:33
Eccentricity: 0.0020405
inclination: 82.5210°
perigee height: 590 km
apogee height: 619 km
right ascension of ascending node: 194.6340°
argument of perigee: 110.1797°
revolutions per day: 14.87762304
mean anomaly at epoch: 250.1618°
orbit number at epoch: 33852

The dashed part of the orbit path shows where the satellite is in the earth's shadow,  

DLR